| time (UTC) | temp F | wind direction | speed MPH | gust MPH | rain 1hr in | rain 24hr in | rain mn in | humidity % | barometer mb |
| 20260504173100 | 69 | 267 | 0.0 | 1.0 | 0.00 | 0.00 | 0.00 | 45 | 1003.6 |
| 20260504171547 | 68 | 262 | 0.0 | 4.0 | 0.00 | 0.00 | 0.00 | 49 | 1003.7 |
| 20260504081536 | 64 | 112 | 0.0 | 1.0 | 0.00 | 0.00 | 0.00 | 43 | 1003.4 |
| 20260504050018 | 68 | 183 | 0.0 | 1.0 | 0.00 | 0.00 | 0.00 | 40 | 1003.3 |
| 20260504044517 | 68 | 271 | 0.0 | 4.0 | 0.00 | 0.00 | 0.00 | 41 | 1003.2 |
| 20260504043016 | 68 | 207 | 0.0 | 2.0 | 0.00 | 0.00 | 0.00 | 41 | 1003.2 |
| 20260504041517 | 68 | 170 | 0.0 | 1.0 | 0.00 | 0.00 | 0.00 | 41 | 1003.0 |
| 20260504040016 | 68 | 224 | 0.0 | 6.0 | 0.00 | 0.00 | 0.00 | 42 | 1002.9 |
| 20260504034526 | 69 | 162 | 0.0 | 3.0 | 0.00 | 0.00 | 0.00 | 42 | 1002.7 |
| 20260504033018 | 70 | 149 | 0.0 | 3.0 | 0.00 | 0.00 | 0.00 | 40 | 1002.5 |
| 20260504031514 | 70 | 217 | 0.0 | 3.0 | 0.00 | 0.00 | 0.00 | 41 | 1002.3 |
| 20260504030013 | 72 | 143 | 0.0 | 3.0 | 0.00 | 0.00 | 0.00 | 39 | 1002.2 |
| 20260504024512 | 74 | 160 | 0.0 | 1.0 | 0.00 | 0.00 | 0.00 | 36 | 1002.2 |
| 20260504023012 | 78 | 229 | 0.0 | 1.0 | 0.00 | 0.00 | 0.00 | 33 | 1002.1 |
| 20260504021511 | 80 | 157 | 0.0 | 1.0 | 0.00 | 0.00 | 0.00 | 31 | 1002.1 |
| 20260504020009 | 79 | 278 | 2.0 | 3.0 | 0.00 | 0.00 | 0.00 | 33 | 1002.3 |
| 20260504014517 | 82 | 261 | 0.0 | 1.0 | 0.00 | 0.00 | 0.00 | 29 | 1002.4 |
| 20260504013008 | 81 | 117 | 0.0 | 3.0 | 0.00 | 0.00 | 0.00 | 27 | 1002.6 |
| 20260504011503 | 82 | 99 | 0.0 | 3.0 | 0.00 | 0.00 | 0.00 | 26 | 1002.7 |
| 20260504010120 | 82 | 115 | 0.0 | 1.0 | 0.00 | 0.00 | 0.00 | 25 | 1002.9 |
| 20260504004556 | 82 | 109 | 0.0 | 4.0 | 0.00 | 0.00 | 0.00 | 26 | 1003.1 |
| 20260504003050 | 81 | 63 | 0.0 | 6.0 | 0.00 | 0.00 | 0.00 | 25 | 1003.3 |
| 20260504001605 | 81 | 109 | 0.0 | 6.0 | 0.00 | 0.00 | 0.00 | 25 | 1003.4 |
| 20260504000044 | 82 | 30 | 1.0 | 9.0 | 0.00 | 0.00 | 0.00 | 25 | 1003.6 |
| 20260503234539 | 81 | 61 | 0.0 | 6.0 | 0.00 | 0.00 | 0.00 | 25 | 1003.8 |
| 20260503233038 | 81 | 1 | 3.0 | 6.0 | 0.00 | 0.00 | 0.00 | 25 | 1004.0 |
| 20260503231545 | 81 | 76 | 0.0 | 5.0 | 0.00 | 0.00 | 0.00 | 25 | 1004.3 |
| 20260503230030 | 81 | 15 | 1.0 | 9.0 | 0.00 | 0.00 | 0.00 | 26 | 1004.6 |
| 20260503224526 | 81 | 25 | 0.0 | 7.0 | 0.00 | 0.00 | 0.00 | 24 | 1004.8 |
| 20260503223026 | 80 | 108 | 0.0 | 4.0 | 0.00 | 0.00 | 0.00 | 25 | 1005.0 |
| 20260503221520 | 81 | 9 | 2.0 | 8.0 | 0.00 | 0.00 | 0.00 | 23 | 1005.2 |
| 20260503220018 | 81 | 161 | 0.0 | 1.0 | 0.00 | 0.00 | 0.00 | 24 | 1005.6 |
| 20260503214514 | 81 | 235 | 0.0 | 3.0 | 0.00 | 0.00 | 0.00 | 24 | 1005.8 |
| 20260503213012 | 82 | 301 | 0.0 | 2.0 | 0.00 | 0.00 | 0.00 | 25 | 1006.0 |
| 20260503211517 | 80 | 10 | 0.0 | 10.0 | 0.00 | 0.00 | 0.00 | 26 | 1006.2 |
| 20260503210014 | 81 | 323 | 0.0 | 4.0 | 0.00 | 0.00 | 0.00 | 25 | 1006.4 |
| 20260503204503 | 80 | 15 | 1.0 | 6.0 | 0.00 | 0.00 | 0.00 | 27 | 1006.6 |
| 20260503203007 | 80 | 3 | 1.0 | 5.0 | 0.00 | 0.00 | 0.00 | 25 | 1006.7 |
| 20260503201600 | 80 | 240 | 0.0 | 1.0 | 0.00 | 0.00 | 0.00 | 27 | 1007.0 |
| 20260503200056 | 79 | 356 | 0.0 | 2.0 | 0.00 | 0.00 | 0.00 | 27 | 1007.1 |
| 20260503194554 | 78 | 332 | 0.0 | 4.0 | 0.00 | 0.00 | 0.00 | 26 | 1007.4 |
| 20260503193050 | 77 | 256 | 0.0 | 4.0 | 0.00 | 0.00 | 0.00 | 33 | 1007.6 |
| 20260503191601 | 76 | 276 | 0.0 | 1.0 | 0.00 | 0.00 | 0.00 | 34 | 1007.8 |
| 20260503190045 | 75 | 333 | 0.0 | 2.0 | 0.00 | 0.00 | 0.00 | 38 | 1008.1 |
| 20260503184555 | 73 | 259 | 0.0 | 1.0 | 0.00 | 0.00 | 0.00 | 44 | 1008.2 |
| 20260503183044 | 72 | 317 | 0.0 | 3.0 | 0.00 | 0.00 | 0.00 | 45 | 1008.4 |
| 20260503181534 | 71 | 338 | 0.0 | 3.0 | 0.00 | 0.00 | 0.00 | 47 | 1008.4 |
| 20260503180035 | 70 | 321 | 0.0 | 2.0 | 0.00 | 0.00 | 0.00 | 48 | 1008.6 |
| 20260503174537 | 68 | 267 | 0.0 | 1.0 | 0.00 | 0.00 | 0.00 | 50 | 1008.7 |